Weather History for KPKD - December, 2012

Change the Weather History Date:

Wednesday, December 19, 2012

  Actual Average Record
Temperature  
Mean Temperature 20 °F -  
Max Temperature 27 °F 20 °F 42 °F (1956)
Min Temperature 14 °F 0 °F -46 °F (1983)
Degree Days  
Heating Degree Days 44    
Moisture  
Dew Point 17 °F    
Average Humidity 87    
Maximum Humidity 96    
Minimum Humidity 78    
Precipitation  
Precipitation 0.00 in - - ()
Sea Level Pressure  
Sea Level Pressure 29.90 in    
Wind  
Wind Speed 7 mph (WSW)    
Max Wind Speed 13 mph    
Max Gust Speed -    
Visibility 8 miles    
Events      
Averages and records for this station are not official NWS values.
T = Trace of Precipitation, MM = Missing Value Source: NWS Daily Summary

Daily Weather History Graph

Daily Weather History Graph

Search for Another Location

Airport or City:

Trip Planner

Search our weather history database for the weather conditions in past years. The results will help you decide how hot, cold, wet, or windy it might be!

Date:

Astronomy

Dec. 19, 2012 Rise Set
Actual Time 8:01 AM CST 4:33 PM CST
Civil Twilight 7:26 AM CST 5:08 PM CST
Nautical Twilight 6:47 AM CST 5:47 PM CST
Astronomical Twilight 6:10 AM CST 6:24 PM CST
Moon 11:46 AM CST (12/19) No Moon Set
Length of Visible Light 9h 42m
Length of Day
8h 31m
Waxing Crescent, 45% of the Moon is Illuminated
Dec 19
Waxing Crescent
Dec 19
First Quarter
Dec 28
Full
Jan 4
Last Quarter
Jan 11
New

Hourly Weather History & Observations

Time (CST) Temp. Windchill Dew Point Humidity Pressure Visibility Wind Dir Wind Speed Gust Speed Precip Events Conditions
12:02 AM 24.8 °F 17.9 °F 23.0 °F 93% 29.70 in 2.0 mi South 5.8 mph - N/A   Overcast
12:24 AM 24.8 °F 17.9 °F 23.0 °F 93% 29.70 in 1.8 mi South 5.8 mph - N/A   Overcast
12:53 AM 25.0 °F 17.1 °F 23.0 °F 92% 29.78 in 1.2 mi SSE 6.9 mph - N/A   Overcast
1:53 AM 26.1 °F 18.4 °F 24.1 °F 92% 29.79 in 2.0 mi South 6.9 mph - N/A   Overcast
2:09 AM 26.6 °F 19.1 °F 24.8 °F 93% 29.73 in 3.0 mi SSW 6.9 mph - N/A   Overcast
2:22 AM 26.6 °F 20.0 °F 24.8 °F 93% 29.73 in 4.0 mi SSW 5.8 mph - N/A   Overcast
2:53 AM 26.1 °F 21.9 °F 25.0 °F 96% 29.80 in 4.0 mi South 3.5 mph - N/A   Overcast
3:53 AM 27.0 °F 21.6 °F 24.1 °F 89% 29.79 in 7.0 mi SW 4.6 mph - N/A   Overcast
4:53 AM 27.0 °F 18.7 °F 24.1 °F 89% 29.80 in 9.0 mi SW 8.1 mph - N/A   Overcast
5:33 AM 24.8 °F 15.3 °F 21.2 °F 86% 29.74 in 10.0 mi SW 9.2 mph - N/A   Scattered Clouds
5:53 AM 21.9 °F 11.7 °F 19.9 °F 92% 29.83 in 10.0 mi WSW 9.2 mph - N/A   Partly Cloudy
6:53 AM 15.1 °F 6.4 °F 12.9 °F 91% 29.85 in 6.0 mi SW 5.8 mph - N/A   Clear
7:53 AM 15.1 °F 5.2 °F 12.9 °F 91% 29.87 in 7.0 mi South 6.9 mph - N/A   Clear
8:53 AM 14.0 °F 6.5 °F 12.0 °F 92% 29.89 in 7.0 mi SSW 4.6 mph - N/A   Clear
9:53 AM 17.1 °F 8.7 °F 16.0 °F 96% 29.91 in 10.0 mi SSW 5.8 mph - N/A   Clear
10:53 AM 21.0 °F 13.4 °F 17.1 °F 85% 29.91 in 10.0 mi SW 5.8 mph - N/A   Clear
11:53 AM 21.0 °F 11.4 °F 16.0 °F 81% 29.92 in 10.0 mi SW 8.1 mph - N/A   Clear
12:53 PM 21.9 °F 10.4 °F 16.0 °F 78% 29.92 in 10.0 mi WSW 11.5 mph - N/A   Clear
1:53 PM 21.9 °F 10.4 °F 16.0 °F 78% 29.93 in 10.0 mi SW 11.5 mph - N/A   Clear
2:53 PM 21.0 °F 11.4 °F 16.0 °F 81% 29.94 in 10.0 mi WSW 8.1 mph - N/A   Partly Cloudy
3:08 PM 21.2 °F 8.9 °F 15.8 °F 80% 29.88 in 10.0 mi WSW 12.7 mph - N/A   Mostly Cloudy
3:53 PM 19.9 °F 8.6 °F 15.1 °F 81% 29.97 in 10.0 mi WSW 10.4 mph - N/A   Overcast
4:05 PM 19.4 °F 9.5 °F 14.0 °F 80% 29.90 in 10.0 mi WSW 8.1 mph - N/A   Overcast
4:41 PM 19.4 °F 10.4 °F 14.0 °F 80% 29.91 in 10.0 mi WSW 6.9 mph - N/A   Overcast
4:53 PM 19.0 °F 11.1 °F 14.0 °F 81% 29.98 in 10.0 mi WSW 5.8 mph - N/A   Overcast
5:21 PM 17.6 °F 8.2 °F 14.0 °F 86% 29.93 in 10.0 mi WSW 6.9 mph - N/A   Overcast
5:53 PM 18.0 °F 7.7 °F 14.0 °F 84% 30.01 in 10.0 mi West 8.1 mph - N/A   Overcast
6:13 PM 17.6 °F 10.7 °F 14.0 °F 86% 29.93 in 10.0 mi WSW 4.6 mph - N/A   Overcast
6:53 PM 16.0 °F 7.4 °F 12.0 °F 84% 30.04 in 10.0 mi West 5.8 mph - N/A   Overcast
7:04 PM 17.6 °F 9.3 °F 12.2 °F 79% 29.95 in 10.0 mi WNW 5.8 mph - N/A   Overcast
7:53 PM 18.0 °F 8.7 °F 14.0 °F 84% 30.04 in 10.0 mi WNW 6.9 mph - N/A   Overcast
8:53 PM 18.0 °F 8.7 °F 14.0 °F 84% 30.07 in 9.0 mi WSW 6.9 mph - N/A   Overcast
9:12 PM 17.6 °F 9.3 °F 14.0 °F 86% 29.98 in 9.0 mi WSW 5.8 mph - N/A   Overcast
9:50 PM 17.6 °F 10.7 °F 14.0 °F 86% 29.97 in 9.0 mi NW 4.6 mph - N/A   Overcast
9:53 PM 18.0 °F 11.1 °F 15.1 °F 88% 30.05 in 9.0 mi WNW 4.6 mph - N/A   Overcast
10:08 PM 17.6 °F 10.7 °F 14.0 °F 86% 29.96 in 9.0 mi NW 4.6 mph - N/A   Overcast
10:53 PM 18.0 °F 8.7 °F 15.1 °F 88% 30.04 in 7.0 mi NW 6.9 mph - N/A   Overcast
11:53 PM 19.0 °F 10.0 °F 16.0 °F 88% 30.05 in 7.0 mi NW 6.9 mph - N/A   Overcast